O'Neill, NE

7:02 AM CDT on August 27, 2016 (GMT -0500)
The O'Neill Municipal-Baker

Weather History for KONL - November, 2012

Change the Weather History Date:

Wednesday, November 14, 2012

  Actual Average Record
Temperature  
Mean Temperature 39 °F -  
Max Temperature 57 °F 47 °F 78 °F (1953)
Min Temperature 21 °F 25 °F -19 °F (1959)
Degree Days  
Heating Degree Days 26    
Moisture  
Dew Point 26 °F    
Average Humidity 62    
Maximum Humidity 91    
Minimum Humidity 30    
Precipitation  
Precipitation 0.00 in - - ()
Sea Level Pressure  
Sea Level Pressure 30.18 in    
Wind  
Wind Speed 6 mph (SW)    
Max Wind Speed 15 mph    
Max Gust Speed 18 mph    
Visibility 10 miles    
Events      
Averages and records for this station are not official NWS values.
T = Trace of Precipitation, MM = Missing Value Source: NWS Daily Summary

Daily Weather History Graph

Daily Weather History Graph

Search for Another Location

Airport or City:

Trip Planner

Search our weather history database for the weather conditions in past years. The results will help you decide how hot, cold, wet, or windy it might be!

Date:

Astronomy

Nov. 14, 2012 Rise Set
Actual Time 7:25 AM CST 5:12 PM CST
Civil Twilight 6:54 AM CST 5:43 PM CST
Nautical Twilight 6:20 AM CST 6:17 PM CST
Astronomical Twilight 5:47 AM CST 6:50 PM CST
Moon 8:17 AM CST (11/14) 6:01 PM CST (11/14)
Length of Visible Light 10h 48m
Length of Day
9h 47m
New Moon, 1% of the Moon is Illuminated
Nov 14
New Moon
Nov 20
First Quarter
Nov 28
Full
Dec 6
Last Quarter
Dec 13
New

Hourly Weather History & Observations

Time (CST) Temp. Windchill Dew Point Humidity Pressure Visibility Wind Dir Wind Speed Gust Speed Precip Events Conditions
12:15 AM 30.6 °F 24.7 °F 25.3 °F 81% 30.24 in 10.0 mi West 5.8 mph - N/A   Clear
12:35 AM 30.6 °F 27.1 °F 25.0 °F 80% 30.24 in 10.0 mi WSW 3.5 mph - N/A   Clear
12:55 AM 30.2 °F 25.4 °F 24.6 °F 80% 30.24 in 10.0 mi West 4.6 mph - N/A   Clear
1:15 AM 29.7 °F 23.7 °F 23.5 °F 78% 30.24 in 10.0 mi West 5.8 mph - N/A   Clear
1:35 AM 29.3 °F 22.3 °F 23.4 °F 78% 30.24 in 10.0 mi West 6.9 mph - N/A   Clear
1:55 AM 30.2 °F 24.3 °F 23.9 °F 77% 30.24 in 10.0 mi West 5.8 mph - N/A   Clear
2:15 AM 30.2 °F 24.3 °F 23.9 °F 77% 30.24 in 10.0 mi WSW 5.8 mph - N/A   Clear
2:35 AM 29.5 °F 23.4 °F 23.9 °F 80% 30.25 in 10.0 mi West 5.8 mph - N/A   Clear
2:55 AM 28.9 °F 23.9 °F 23.7 °F 81% 30.25 in 10.0 mi WSW 4.6 mph - N/A   Clear
3:15 AM 27.1 °F 21.8 °F 22.8 °F 84% 30.25 in 10.0 mi WSW 4.6 mph - N/A   Clear
3:35 AM 28.0 °F 22.8 °F 23.7 °F 84% 30.25 in 10.0 mi WSW 4.6 mph - N/A   Clear
3:55 AM 27.9 °F 24.0 °F 23.5 °F 84% 30.24 in 10.0 mi WSW 3.5 mph - N/A   Clear
4:15 AM 27.3 °F 20.9 °F 23.5 °F 86% 30.24 in 10.0 mi WSW 5.8 mph - N/A   Clear
4:35 AM 25.5 °F 17.8 °F 21.9 °F 86% 30.24 in 10.0 mi West 6.9 mph - N/A   Clear
4:55 AM 26.8 °F 21.4 °F 23.4 °F 87% 30.24 in 10.0 mi West 4.6 mph - N/A   Clear
5:15 AM 27.3 °F 23.4 °F 23.7 °F 86% 30.23 in 10.0 mi WSW 3.5 mph - N/A   Clear
5:35 AM 25.9 °F 20.3 °F 22.6 °F 88% 30.24 in 10.0 mi West 4.6 mph - N/A   Clear
5:55 AM 26.1 °F 20.5 °F 22.8 °F 88% 30.24 in 10.0 mi WSW 4.6 mph - N/A   Clear
6:15 AM 23.9 °F 18.0 °F 20.8 °F 88% 30.24 in 10.0 mi SW 4.6 mph - N/A   Clear
6:35 AM 22.1 °F - 19.4 °F 89% 30.24 in 10.0 mi Calm Calm - N/A   Clear
6:55 AM 22.5 °F - 20.1 °F 91% 30.23 in 10.0 mi Calm Calm - N/A   Clear
7:15 AM 22.6 °F - 19.9 °F 89% 30.23 in 10.0 mi Calm Calm - N/A   Clear
7:35 AM 21.4 °F 16.6 °F 18.9 °F 90% 30.24 in 10.0 mi SSW 3.5 mph - N/A   Clear
7:55 AM 21.4 °F 16.6 °F 19.0 °F 91% 30.24 in 10.0 mi SSW 3.5 mph - N/A   Clear
8:15 AM 24.8 °F 20.5 °F 22.3 °F 90% 30.24 in 10.0 mi SSW 3.5 mph - N/A   Clear
8:35 AM 27.9 °F 24.0 °F 24.6 °F 88% 30.24 in 10.0 mi South 3.5 mph - N/A   Clear
8:55 AM 30.0 °F 26.5 °F 26.6 °F 87% 30.24 in 10.0 mi South 3.5 mph - N/A   Clear
9:15 AM 32.2 °F - 28.4 °F 86% 30.24 in 10.0 mi Calm Calm - N/A   Clear
9:35 AM 35.6 °F 31.7 °F 30.9 °F 83% 30.25 in 10.0 mi SSW 4.6 mph - N/A   Clear
9:55 AM 38.7 °F 34.3 °F 32.5 °F 79% 30.24 in 10.0 mi SSW 5.8 mph - N/A   Clear
10:15 AM 43.0 °F 37.7 °F 33.1 °F 68% 30.24 in 10.0 mi SW 9.2 mph - N/A   Clear
10:35 AM 45.0 °F 40.6 °F 32.9 °F 63% 30.23 in 10.0 mi SSW 8.1 mph - N/A   Clear
10:55 AM 48.7 °F - 32.0 °F 52% 30.23 in 10.0 mi SW 11.5 mph - N/A   Clear
11:15 AM 50.5 °F - 30.4 °F 46% 30.22 in 10.0 mi SSW 10.4 mph - N/A   Clear
11:35 AM 52.0 °F - 29.8 °F 43% 30.21 in 10.0 mi SSW 10.4 mph 16.1 mph N/A   Clear
11:55 AM 53.1 °F - 29.5 °F 40% 30.19 in 10.0 mi SW 15.0 mph - N/A   Clear
12:15 PM 54.0 °F - 28.4 °F 37% 30.18 in 10.0 mi SSW 12.7 mph - N/A   Clear
12:35 PM 54.7 °F - 27.3 °F 35% 30.17 in 10.0 mi SSW 12.7 mph - N/A   Clear
12:55 PM 55.8 °F - 26.8 °F 33% 30.16 in 10.0 mi SSW 11.5 mph 16.1 mph N/A   Clear
1:15 PM 56.5 °F - 26.4 °F 32% 30.15 in 10.0 mi SSW 11.5 mph - N/A   Clear
1:35 PM 56.5 °F - 26.1 °F 31% 30.14 in 10.0 mi South 11.5 mph 17.3 mph N/A   Clear
1:55 PM 57.2 °F - 25.7 °F 30% 30.14 in 10.0 mi SW 12.7 mph - N/A   Clear
2:15 PM 57.0 °F - 26.1 °F 30% 30.13 in 10.0 mi SSW 10.4 mph 18.4 mph N/A   Clear
2:35 PM 57.0 °F - 26.4 °F 31% 30.13 in 10.0 mi SSW 10.4 mph - N/A   Clear
2:55 PM 57.4 °F - 26.6 °F 31% 30.11 in 10.0 mi South 11.5 mph - N/A   Clear
3:15 PM 56.8 °F - 26.6 °F 31% 30.10 in 10.0 mi SSW 11.5 mph - N/A   Clear
3:35 PM 56.8 °F - 27.0 °F 32% 30.10 in 10.0 mi SSW 12.7 mph - N/A   Clear
3:55 PM 56.8 °F - 27.3 °F 32% 30.10 in 10.0 mi SW 13.8 mph - N/A   Clear
4:15 PM 56.1 °F - 27.1 °F 33% 30.10 in 10.0 mi SSW 11.5 mph - N/A   Clear
4:35 PM 55.4 °F - 27.5 °F 34% 30.10 in 10.0 mi South 5.8 mph - N/A   Clear
4:55 PM 54.3 °F - 27.5 °F 36% 30.09 in 10.0 mi SSW 8.1 mph - N/A   Clear
5:15 PM 51.6 °F - 27.9 °F 40% 30.09 in 10.0 mi SSW 8.1 mph - N/A   Clear
5:35 PM 50.2 °F - 27.5 °F 42% 30.08 in 10.0 mi South 9.2 mph - N/A   Clear
5:55 PM 48.2 °F - 27.5 °F 45% 30.09 in 10.0 mi South 8.1 mph - N/A   Clear
6:15 PM 47.3 °F - 27.5 °F 46% 30.09 in 10.0 mi South 6.9 mph - N/A   Clear
6:35 PM 45.1 °F 41.4 °F 27.1 °F 49% 30.10 in 10.0 mi South 6.9 mph - N/A   Clear
6:55 PM 43.9 °F 40.5 °F 27.3 °F 52% 30.10 in 10.0 mi South 5.8 mph - N/A   Clear
7:15 PM 43.7 °F 41.1 °F 26.6 °F 51% 30.10 in 10.0 mi South 4.6 mph - N/A   Clear
7:35 PM 42.4 °F - 26.8 °F 54% 30.10 in 10.0 mi Calm Calm - N/A   Mostly Cloudy
7:55 PM 42.8 °F 40.1 °F 27.5 °F 55% 30.10 in 10.0 mi South 4.6 mph - N/A   Overcast
8:35 PM 41.9 °F 40.0 °F 27.0 °F 55% 30.10 in 10.0 mi SSW 3.5 mph - N/A   Scattered Clouds
8:55 PM 41.0 °F 38.0 °F 27.1 °F 58% 30.10 in 10.0 mi SW 4.6 mph - N/A   Clear
9:15 PM 40.5 °F 35.8 °F 27.5 °F 60% 30.10 in 10.0 mi SSW 6.9 mph - N/A   Clear
9:35 PM 40.3 °F 36.3 °F 26.2 °F 57% 30.11 in 10.0 mi SSW 5.8 mph - N/A   Clear
9:55 PM 39.9 °F 35.8 °F 26.1 °F 58% 30.12 in 10.0 mi SW 5.8 mph - N/A   Clear
10:15 PM 39.6 °F 34.7 °F 26.1 °F 58% 30.12 in 10.0 mi SSW 6.9 mph - N/A   Clear
10:35 PM 38.5 °F 36.1 °F 26.1 °F 61% 30.12 in 10.0 mi SW 3.5 mph - N/A   Clear
10:55 PM 36.3 °F 33.7 °F 26.2 °F 67% 30.13 in 10.0 mi West 3.5 mph - N/A   Clear
11:15 PM 36.0 °F - 26.1 °F 67% 30.13 in 10.0 mi Calm Calm - N/A   Clear
11:35 PM 37.2 °F 33.6 °F 25.7 °F 63% 30.13 in 10.0 mi SW 4.6 mph - N/A   Clear
11:55 PM 37.9 °F 35.5 °F 25.7 °F 61% 30.14 in 10.0 mi SW 3.5 mph - N/A   Clear